owner,sensor,date,latitude,longitude,sea_surface_height_above_sea_level,qcFlag 
COMPS,ioos:station:USF.COMPS:EGK:1,2009-01-01T00:00:00Z,27.6010,-82.7510,-0.273,1111122 
COMPS,ioos:station:USF.COMPS:EGK:1,2009-01-01T00:06:00Z,27.6010,-82.7510,-0.264,1111122 
COMPS,ioos:station:USF.COMPS:EGK:1,2009-01-01T00:12:00Z,27.6010,-82.7510,-0.258,1111122 
COMPS,ioos:station:USF.COMPS:EGK:1,2009-01-01T00:18:00Z,27.6010,-82.7510,-0.264,1111122 
COMPS,ioos:station:USF.COMPS:EGK:1,2009-01-01T00:24:00Z,27.6010,-82.7510,-0.268,1111122 
COMPS,ioos:station:USF.COMPS:EGK:1,2009-01-01T00:30:00Z,27.6010,-82.7510,-0.269,1111122 
COMPS,ioos:station:USF.COMPS:EGK:1,2009-01-01T00:36:00Z,27.6010,-82.7510,-0.255,1111122 
COMPS,ioos:station:USF.COMPS:EGK:1,2009-01-01T00:42:00Z,27.6010,-82.7510,-0.247,1111122 
COMPS,ioos:station:USF.COMPS:EGK:1,2009-01-01T00:48:00Z,27.6010,-82.7510,-0.242,1111122 
COMPS,ioos:station:USF.COMPS:EGK:1,2009-01-01T00:54:00Z,27.6010,-82.7510,-0.25,1111122 
COMPS,ioos:station:USF.COMPS:EGK:1,2009-01-01T01:00:00Z,27.6010,-82.7510,-0.243,1111122 
COMPS,ioos:station:USF.COMPS:EGK:1,2009-01-01T01:06:00Z,27.6010,-82.7510,-0.242,1111122 
COMPS,ioos:station:USF.COMPS:EGK:1,2009-01-01T01:12:00Z,27.6010,-82.7510,-0.235,1111122 
COMPS,ioos:station:USF.COMPS:EGK:1,2009-01-01T01:18:00Z,27.6010,-82.7510,-0.232,1111122 
COMPS,ioos:station:USF.COMPS:EGK:1,2009-01-01T01:24:00Z,27.6010,-82.7510,-0.23,1111122 
COMPS,ioos:station:USF.COMPS:EGK:1,2009-01-01T01:30:00Z,27.6010,-82.7510,-0.234,1111122 
COMPS,ioos:station:USF.COMPS:EGK:1,2009-01-01T01:36:00Z,27.6010,-82.7510,-0.231,1111122 
COMPS,ioos:station:USF.COMPS:EGK:1,2009-01-01T01:42:00Z,27.6010,-82.7510,-0.225,1111122 
COMPS,ioos:station:USF.COMPS:EGK:1,2009-01-01T01:48:00Z,27.6010,-82.7510,-0.224,1111122 
COMPS,ioos:station:USF.COMPS:EGK:1,2009-01-01T01:54:00Z,27.6010,-82.7510,-0.215,1111122 
COMPS,ioos:station:USF.COMPS:EGK:1,2009-01-01T02:00:00Z,27.6010,-82.7510,-0.202,1111122 
COMPS,ioos:station:USF.COMPS:EGK:1,2009-01-01T02:06:00Z,27.6010,-82.7510,-0.199,1111122 
COMPS,ioos:station:USF.COMPS:EGK:1,2009-01-01T02:12:00Z,27.6010,-82.7510,-0.19,1111122 
COMPS,ioos:station:USF.COMPS:EGK:1,2009-01-01T02:18:00Z,27.6010,-82.7510,-0.187,1111122 
COMPS,ioos:station:USF.COMPS:EGK:1,2009-01-01T02:24:00Z,27.6010,-82.7510,-0.183,1111122 
COMPS,ioos:station:USF.COMPS:EGK:1,2009-01-01T02:30:00Z,27.6010,-82.7510,-0.183,1111122 
COMPS,ioos:station:USF.COMPS:EGK:1,2009-01-01T02:36:00Z,27.6010,-82.7510,-0.176,1111122 
COMPS,ioos:station:USF.COMPS:EGK:1,2009-01-01T02:42:00Z,27.6010,-82.7510,-0.177,1111122 
COMPS,ioos:station:USF.COMPS:EGK:1,2009-01-01T02:48:00Z,27.6010,-82.7510,-0.164,1111122 
COMPS,ioos:station:USF.COMPS:EGK:1,2009-01-01T02:54:00Z,27.6010,-82.7510,-0.157,1111122 
COMPS,ioos:station:USF.COMPS:EGK:1,2009-01-01T03:00:00Z,27.6010,-82.7510,-0.152,1111122 
COMPS,ioos:station:USF.COMPS:EGK:1,2009-01-01T03:06:00Z,27.6010,-82.7510,-0.141,1111122 
COMPS,ioos:station:USF.COMPS:EGK:1,2009-01-01T03:12:00Z,27.6010,-82.7510,-0.136,1111122 
COMPS,ioos:station:USF.COMPS:EGK:1,2009-01-01T03:18:00Z,27.6010,-82.7510,-0.132,1111122 
COMPS,ioos:station:USF.COMPS:EGK:1,2009-01-01T03:24:00Z,27.6010,-82.7510,-0.128,1111122 
COMPS,ioos:station:USF.COMPS:EGK:1,2009-01-01T03:30:00Z,27.6010,-82.7510,-0.125,1111122 
COMPS,ioos:station:USF.COMPS:EGK:1,2009-01-01T03:36:00Z,27.6010,-82.7510,-0.111,1111122 
COMPS,ioos:station:USF.COMPS:EGK:1,2009-01-01T03:42:00Z,27.6010,-82.7510,-0.105,1111122 
COMPS,ioos:station:USF.COMPS:EGK:1,2009-01-01T03:48:00Z,27.6010,-82.7510,-0.089,1111122 
COMPS,ioos:station:USF.COMPS:EGK:1,2009-01-01T03:54:00Z,27.6010,-82.7510,-0.078,1111122 
COMPS,ioos:station:USF.COMPS:EGK:1,2009-01-01T04:00:00Z,27.6010,-82.7510,-0.073,1111122 
COMPS,ioos:station:USF.COMPS:EGK:1,2009-01-01T04:06:00Z,27.6010,-82.7510,-0.063,1111122 
COMPS,ioos:station:USF.COMPS:EGK:1,2009-01-01T04:12:00Z,27.6010,-82.7510,-0.058,1111122 
COMPS,ioos:station:USF.COMPS:EGK:1,2009-01-01T04:18:00Z,27.6010,-82.7510,-0.059,1111122 
COMPS,ioos:station:USF.COMPS:EGK:1,2009-01-01T04:24:00Z,27.6010,-82.7510,-0.052,1111122 
COMPS,ioos:station:USF.COMPS:EGK:1,2009-01-01T04:30:00Z,27.6010,-82.7510,-0.048,1111122 
COMPS,ioos:station:USF.COMPS:EGK:1,2009-01-01T04:36:00Z,27.6010,-82.7510,-0.04,1111122 
COMPS,ioos:station:USF.COMPS:EGK:1,2009-01-01T04:42:00Z,27.6010,-82.7510,-0.037,1111122 
COMPS,ioos:station:USF.COMPS:EGK:1,2009-01-01T04:48:00Z,27.6010,-82.7510,-0.027,1111122 
COMPS,ioos:station:USF.COMPS:EGK:1,2009-01-01T04:54:00Z,27.6010,-82.7510,-0.031,1111122 
COMPS,ioos:station:USF.COMPS:EGK:1,2009-01-01T05:00:00Z,27.6010,-82.7510,-0.032,1111122 
COMPS,ioos:station:USF.COMPS:EGK:1,2009-01-01T05:06:00Z,27.6010,-82.7510,-0.033,1111122 
COMPS,ioos:station:USF.COMPS:EGK:1,2009-01-01T05:12:00Z,27.6010,-82.7510,-0.034,1111122 
COMPS,ioos:station:USF.COMPS:EGK:1,2009-01-01T05:18:00Z,27.6010,-82.7510,-0.038,1111122 
COMPS,ioos:station:USF.COMPS:EGK:1,2009-01-01T05:24:00Z,27.6010,-82.7510,-0.041,1111122 
COMPS,ioos:station:USF.COMPS:EGK:1,2009-01-01T05:30:00Z,27.6010,-82.7510,-0.049,1111122 
COMPS,ioos:station:USF.COMPS:EGK:1,2009-01-01T05:36:00Z,27.6010,-82.7510,-0.046,1111122 
COMPS,ioos:station:USF.COMPS:EGK:1,2009-01-01T05:42:00Z,27.6010,-82.7510,-0.054,1111122 
COMPS,ioos:station:USF.COMPS:EGK:1,2009-01-01T05:48:00Z,27.6010,-82.7510,-0.053,1111122 
COMPS,ioos:station:USF.COMPS:EGK:1,2009-01-01T05:54:00Z,27.6010,-82.7510,-0.05,1111122 
COMPS,ioos:station:USF.COMPS:EGK:1,2009-01-01T06:00:00Z,27.6010,-82.7510,-0.049,1111122 
COMPS,ioos:station:USF.COMPS:EGK:1,2009-01-01T06:06:00Z,27.6010,-82.7510,-0.043,1111122 
COMPS,ioos:station:USF.COMPS:EGK:1,2009-01-01T06:12:00Z,27.6010,-82.7510,-0.044,1111122 
COMPS,ioos:station:USF.COMPS:EGK:1,2009-01-01T06:18:00Z,27.6010,-82.7510,-0.058,1111122 
COMPS,ioos:station:USF.COMPS:EGK:1,2009-01-01T06:24:00Z,27.6010,-82.7510,-0.062,1111122 
COMPS,ioos:station:USF.COMPS:EGK:1,2009-01-01T06:30:00Z,27.6010,-82.7510,-0.071,1111122 
COMPS,ioos:station:USF.COMPS:EGK:1,2009-01-01T06:36:00Z,27.6010,-82.7510,-0.08,1111122 
COMPS,ioos:station:USF.COMPS:EGK:1,2009-01-01T06:42:00Z,27.6010,-82.7510,-0.083,1111122 
COMPS,ioos:station:USF.COMPS:EGK:1,2009-01-01T06:48:00Z,27.6010,-82.7510,-0.086,1111122 
COMPS,ioos:station:USF.COMPS:EGK:1,2009-01-01T06:54:00Z,27.6010,-82.7510,-0.094,1111122 
COMPS,ioos:station:USF.COMPS:EGK:1,2009-01-01T07:00:00Z,27.6010,-82.7510,-0.091,1111122 
COMPS,ioos:station:USF.COMPS:EGK:1,2009-01-01T07:06:00Z,27.6010,-82.7510,-0.106,1111122 
COMPS,ioos:station:USF.COMPS:EGK:1,2009-01-01T07:12:00Z,27.6010,-82.7510,-0.105,1111122 
COMPS,ioos:station:USF.COMPS:EGK:1,2009-01-01T07:18:00Z,27.6010,-82.7510,-0.11,1111122 
COMPS,ioos:station:USF.COMPS:EGK:1,2009-01-01T07:24:00Z,27.6010,-82.7510,-0.115,1111122 
COMPS,ioos:station:USF.COMPS:EGK:1,2009-01-01T07:30:00Z,27.6010,-82.7510,-0.122,1111122 
COMPS,ioos:station:USF.COMPS:EGK:1,2009-01-01T07:36:00Z,27.6010,-82.7510,-0.124,1111122 
COMPS,ioos:station:USF.COMPS:EGK:1,2009-01-01T07:42:00Z,27.6010,-82.7510,-0.134,1111122 
COMPS,ioos:station:USF.COMPS:EGK:1,2009-01-01T07:48:00Z,27.6010,-82.7510,-0.142,1111122 
COMPS,ioos:station:USF.COMPS:EGK:1,2009-01-01T07:54:00Z,27.6010,-82.7510,-0.145,1111122 
COMPS,ioos:station:USF.COMPS:EGK:1,2009-01-01T08:00:00Z,27.6010,-82.7510,-0.157,1111122 
COMPS,ioos:station:USF.COMPS:EGK:1,2009-01-01T08:06:00Z,27.6010,-82.7510,-0.16,1111122 
COMPS,ioos:station:USF.COMPS:EGK:1,2009-01-01T08:12:00Z,27.6010,-82.7510,-0.164,1111122 
COMPS,ioos:station:USF.COMPS:EGK:1,2009-01-01T08:18:00Z,27.6010,-82.7510,-0.175,1111122 
COMPS,ioos:station:USF.COMPS:EGK:1,2009-01-01T08:24:00Z,27.6010,-82.7510,-0.176,1111122 
COMPS,ioos:station:USF.COMPS:EGK:1,2009-01-01T08:30:00Z,27.6010,-82.7510,-0.177,1111122 
COMPS,ioos:station:USF.COMPS:EGK:1,2009-01-01T08:36:00Z,27.6010,-82.7510,-0.188,1111122 
COMPS,ioos:station:USF.COMPS:EGK:1,2009-01-01T08:42:00Z,27.6010,-82.7510,-0.191,1111122 
COMPS,ioos:station:USF.COMPS:EGK:1,2009-01-01T08:48:00Z,27.6010,-82.7510,-0.202,1111122 
COMPS,ioos:station:USF.COMPS:EGK:1,2009-01-01T08:54:00Z,27.6010,-82.7510,-0.202,1111122 
COMPS,ioos:station:USF.COMPS:EGK:1,2009-01-01T09:00:00Z,27.6010,-82.7510,-0.199,1111122 
COMPS,ioos:station:USF.COMPS:EGK:1,2009-01-01T09:06:00Z,27.6010,-82.7510,-0.215,1111122 
COMPS,ioos:station:USF.COMPS:EGK:1,2009-01-01T09:12:00Z,27.6010,-82.7510,-0.221,1111122 
COMPS,ioos:station:USF.COMPS:EGK:1,2009-01-01T09:18:00Z,27.6010,-82.7510,-0.225,1111122 
COMPS,ioos:station:USF.COMPS:EGK:1,2009-01-01T09:24:00Z,27.6010,-82.7510,-0.242,1111122 
COMPS,ioos:station:USF.COMPS:EGK:1,2009-01-01T09:30:00Z,27.6010,-82.7510,-0.252,1111122 
COMPS,ioos:station:USF.COMPS:EGK:1,2009-01-01T09:36:00Z,27.6010,-82.7510,-0.271,1111122 
COMPS,ioos:station:USF.COMPS:EGK:1,2009-01-01T09:42:00Z,27.6010,-82.7510,-0.279,1111122 
COMPS,ioos:station:USF.COMPS:EGK:1,2009-01-01T09:48:00Z,27.6010,-82.7510,-0.283,1111122 
COMPS,ioos:station:USF.COMPS:EGK:1,2009-01-01T09:54:00Z,27.6010,-82.7510,-0.299,1111122 
COMPS,ioos:station:USF.COMPS:EGK:1,2009-01-01T10:00:00Z,27.6010,-82.7510,-0.314,1111122 
COMPS,ioos:station:USF.COMPS:EGK:1,2009-01-01T10:06:00Z,27.6010,-82.7510,-0.32,1111122 
COMPS,ioos:station:USF.COMPS:EGK:1,2009-01-01T10:12:00Z,27.6010,-82.7510,-0.333,1111122 
COMPS,ioos:station:USF.COMPS:EGK:1,2009-01-01T10:18:00Z,27.6010,-82.7510,-0.344,1111122 
COMPS,ioos:station:USF.COMPS:EGK:1,2009-01-01T10:24:00Z,27.6010,-82.7510,-0.357,1111122 
COMPS,ioos:station:USF.COMPS:EGK:1,2009-01-01T10:30:00Z,27.6010,-82.7510,-0.36,1111122 
COMPS,ioos:station:USF.COMPS:EGK:1,2009-01-01T10:36:00Z,27.6010,-82.7510,-0.368,1111122 
COMPS,ioos:station:USF.COMPS:EGK:1,2009-01-01T10:42:00Z,27.6010,-82.7510,-0.374,1111122 
COMPS,ioos:station:USF.COMPS:EGK:1,2009-01-01T10:48:00Z,27.6010,-82.7510,-0.383,1111122 
COMPS,ioos:station:USF.COMPS:EGK:1,2009-01-01T10:54:00Z,27.6010,-82.7510,-0.399,1111122 
COMPS,ioos:station:USF.COMPS:EGK:1,2009-01-01T11:00:00Z,27.6010,-82.7510,-0.401,1111122 
COMPS,ioos:station:USF.COMPS:EGK:1,2009-01-01T11:06:00Z,27.6010,-82.7510,-0.409,1111122 
COMPS,ioos:station:USF.COMPS:EGK:1,2009-01-01T11:12:00Z,27.6010,-82.7510,-0.413,1111122 
COMPS,ioos:station:USF.COMPS:EGK:1,2009-01-01T11:18:00Z,27.6010,-82.7510,-0.415,1111122 
COMPS,ioos:station:USF.COMPS:EGK:1,2009-01-01T11:24:00Z,27.6010,-82.7510,-0.413,1111122 
COMPS,ioos:station:USF.COMPS:EGK:1,2009-01-01T11:30:00Z,27.6010,-82.7510,-0.413,1111122 
COMPS,ioos:station:USF.COMPS:EGK:1,2009-01-01T11:36:00Z,27.6010,-82.7510,-0.413,1111122 
COMPS,ioos:station:USF.COMPS:EGK:1,2009-01-01T11:42:00Z,27.6010,-82.7510,-0.412,1111122 
COMPS,ioos:station:USF.COMPS:EGK:1,2009-01-01T11:48:00Z,27.6010,-82.7510,-0.412,1111122 
COMPS,ioos:station:USF.COMPS:EGK:1,2009-01-01T11:54:00Z,27.6010,-82.7510,-0.412,1111122 
COMPS,ioos:station:USF.COMPS:EGK:1,2009-01-01T12:00:00Z,27.6010,-82.7510,-0.413,1111122 
COMPS,ioos:station:USF.COMPS:EGK:1,2009-01-01T12:06:00Z,27.6010,-82.7510,-0.414,1111122 
COMPS,ioos:station:USF.COMPS:EGK:1,2009-01-01T12:12:00Z,27.6010,-82.7510,-0.413,1111122 
COMPS,ioos:station:USF.COMPS:EGK:1,2009-01-01T12:18:00Z,27.6010,-82.7510,-0.413,1111122 
COMPS,ioos:station:USF.COMPS:EGK:1,2009-01-01T12:24:00Z,27.6010,-82.7510,-0.413,1111122 
COMPS,ioos:station:USF.COMPS:EGK:1,2009-01-01T12:30:00Z,27.6010,-82.7510,-0.413,1111122 
COMPS,ioos:station:USF.COMPS:EGK:1,2009-01-01T12:36:00Z,27.6010,-82.7510,-0.412,1111122 
COMPS,ioos:station:USF.COMPS:EGK:1,2009-01-01T12:42:00Z,27.6010,-82.7510,-0.41,1111122 
COMPS,ioos:station:USF.COMPS:EGK:1,2009-01-01T12:48:00Z,27.6010,-82.7510,-0.412,1111122 
COMPS,ioos:station:USF.COMPS:EGK:1,2009-01-01T12:54:00Z,27.6010,-82.7510,-0.412,1111122 
COMPS,ioos:station:USF.COMPS:EGK:1,2009-01-01T13:00:00Z,27.6010,-82.7510,-0.412,1111122 
COMPS,ioos:station:USF.COMPS:EGK:1,2009-01-01T13:06:00Z,27.6010,-82.7510,-0.411,1111122 
COMPS,ioos:station:USF.COMPS:EGK:1,2009-01-01T13:12:00Z,27.6010,-82.7510,-0.411,1111122 
COMPS,ioos:station:USF.COMPS:EGK:1,2009-01-01T13:18:00Z,27.6010,-82.7510,-0.41,1111122 
COMPS,ioos:station:USF.COMPS:EGK:1,2009-01-01T13:24:00Z,27.6010,-82.7510,-0.41,1111122 
COMPS,ioos:station:USF.COMPS:EGK:1,2009-01-01T13:30:00Z,27.6010,-82.7510,-0.411,1111122 
COMPS,ioos:station:USF.COMPS:EGK:1,2009-01-01T13:36:00Z,27.6010,-82.7510,-0.409,1111122 
COMPS,ioos:station:USF.COMPS:EGK:1,2009-01-01T13:42:00Z,27.6010,-82.7510,-0.409,1111122 
COMPS,ioos:station:USF.COMPS:EGK:1,2009-01-01T13:48:00Z,27.6010,-82.7510,-0.409,1111122 
COMPS,ioos:station:USF.COMPS:EGK:1,2009-01-01T13:54:00Z,27.6010,-82.7510,-0.409,1111122 
COMPS,ioos:station:USF.COMPS:EGK:1,2009-01-01T14:00:00Z,27.6010,-82.7510,-0.409,1111122 
COMPS,ioos:station:USF.COMPS:EGK:1,2009-01-01T14:06:00Z,27.6010,-82.7510,-0.409,1111122 
COMPS,ioos:station:USF.COMPS:EGK:1,2009-01-01T14:12:00Z,27.6010,-82.7510,-0.409,1111122 
COMPS,ioos:station:USF.COMPS:EGK:1,2009-01-01T14:18:00Z,27.6010,-82.7510,-0.41,1111122 
COMPS,ioos:station:USF.COMPS:EGK:1,2009-01-01T14:24:00Z,27.6010,-82.7510,-0.41,1111122 
COMPS,ioos:station:USF.COMPS:EGK:1,2009-01-01T14:30:00Z,27.6010,-82.7510,-0.41,1111122 
COMPS,ioos:station:USF.COMPS:EGK:1,2009-01-01T14:36:00Z,27.6010,-82.7510,-0.41,1111122 
COMPS,ioos:station:USF.COMPS:EGK:1,2009-01-01T14:42:00Z,27.6010,-82.7510,-0.41,1111122 
COMPS,ioos:station:USF.COMPS:EGK:1,2009-01-01T14:48:00Z,27.6010,-82.7510,-0.41,1111122 
COMPS,ioos:station:USF.COMPS:EGK:1,2009-01-01T14:54:00Z,27.6010,-82.7510,-0.408,1111122 
COMPS,ioos:station:USF.COMPS:EGK:1,2009-01-01T15:00:00Z,27.6010,-82.7510,-0.411,1111122 
COMPS,ioos:station:USF.COMPS:EGK:1,2009-01-01T15:06:00Z,27.6010,-82.7510,-0.409,1111122 
COMPS,ioos:station:USF.COMPS:EGK:1,2009-01-01T15:12:00Z,27.6010,-82.7510,-0.407,1111122 
COMPS,ioos:station:USF.COMPS:EGK:1,2009-01-01T15:18:00Z,27.6010,-82.7510,-0.411,1111122 
COMPS,ioos:station:USF.COMPS:EGK:1,2009-01-01T15:24:00Z,27.6010,-82.7510,-0.412,1111122 
COMPS,ioos:station:USF.COMPS:EGK:1,2009-01-01T15:30:00Z,27.6010,-82.7510,-0.412,1111122 
COMPS,ioos:station:USF.COMPS:EGK:1,2009-01-01T15:36:00Z,27.6010,-82.7510,-0.412,1111122 
COMPS,ioos:station:USF.COMPS:EGK:1,2009-01-01T15:42:00Z,27.6010,-82.7510,-0.411,1111122 
COMPS,ioos:station:USF.COMPS:EGK:1,2009-01-01T15:48:00Z,27.6010,-82.7510,-0.413,1111122 
COMPS,ioos:station:USF.COMPS:EGK:1,2009-01-01T15:54:00Z,27.6010,-82.7510,-0.409,1111122 
COMPS,ioos:station:USF.COMPS:EGK:1,2009-01-01T16:00:00Z,27.6010,-82.7510,-0.405,1111122 
COMPS,ioos:station:USF.COMPS:EGK:1,2009-01-01T16:06:00Z,27.6010,-82.7510,-0.4,1111122 
COMPS,ioos:station:USF.COMPS:EGK:1,2009-01-01T16:12:00Z,27.6010,-82.7510,-0.4,1111122 
COMPS,ioos:station:USF.COMPS:EGK:1,2009-01-01T16:18:00Z,27.6010,-82.7510,-0.391,1111122 
COMPS,ioos:station:USF.COMPS:EGK:1,2009-01-01T16:24:00Z,27.6010,-82.7510,-0.395,1111122 
COMPS,ioos:station:USF.COMPS:EGK:1,2009-01-01T16:30:00Z,27.6010,-82.7510,-0.389,1111122 
COMPS,ioos:station:USF.COMPS:EGK:1,2009-01-01T16:36:00Z,27.6010,-82.7510,-0.372,1111122 
COMPS,ioos:station:USF.COMPS:EGK:1,2009-01-01T16:42:00Z,27.6010,-82.7510,-0.37,1111122 
COMPS,ioos:station:USF.COMPS:EGK:1,2009-01-01T16:48:00Z,27.6010,-82.7510,-0.366,1111122 
COMPS,ioos:station:USF.COMPS:EGK:1,2009-01-01T16:54:00Z,27.6010,-82.7510,-0.357,1111122 
COMPS,ioos:station:USF.COMPS:EGK:1,2009-01-01T17:00:00Z,27.6010,-82.7510,-0.356,1111122 
COMPS,ioos:station:USF.COMPS:EGK:1,2009-01-01T17:06:00Z,27.6010,-82.7510,-0.342,1111122 
COMPS,ioos:station:USF.COMPS:EGK:1,2009-01-01T17:12:00Z,27.6010,-82.7510,-0.335,1111122 
COMPS,ioos:station:USF.COMPS:EGK:1,2009-01-01T17:18:00Z,27.6010,-82.7510,-0.321,1111122 
COMPS,ioos:station:USF.COMPS:EGK:1,2009-01-01T17:24:00Z,27.6010,-82.7510,-0.316,1111122 
COMPS,ioos:station:USF.COMPS:EGK:1,2009-01-01T17:30:00Z,27.6010,-82.7510,-0.307,1111122 
COMPS,ioos:station:USF.COMPS:EGK:1,2009-01-01T17:36:00Z,27.6010,-82.7510,-0.301,1111122 
COMPS,ioos:station:USF.COMPS:EGK:1,2009-01-01T17:42:00Z,27.6010,-82.7510,-0.305,1111122 
COMPS,ioos:station:USF.COMPS:EGK:1,2009-01-01T17:48:00Z,27.6010,-82.7510,-0.299,1111122 
COMPS,ioos:station:USF.COMPS:EGK:1,2009-01-01T17:54:00Z,27.6010,-82.7510,-0.295,1111122 
COMPS,ioos:station:USF.COMPS:EGK:1,2009-01-01T18:00:00Z,27.6010,-82.7510,-0.287,1111122 
COMPS,ioos:station:USF.COMPS:EGK:1,2009-01-01T18:06:00Z,27.6010,-82.7510,-0.273,1111122 
COMPS,ioos:station:USF.COMPS:EGK:1,2009-01-01T18:12:00Z,27.6010,-82.7510,-0.272,1111122 
COMPS,ioos:station:USF.COMPS:EGK:1,2009-01-01T18:18:00Z,27.6010,-82.7510,-0.258,1111122 
COMPS,ioos:station:USF.COMPS:EGK:1,2009-01-01T18:24:00Z,27.6010,-82.7510,-0.259,1111122 
COMPS,ioos:station:USF.COMPS:EGK:1,2009-01-01T18:30:00Z,27.6010,-82.7510,-0.248,1111122 
COMPS,ioos:station:USF.COMPS:EGK:1,2009-01-01T18:36:00Z,27.6010,-82.7510,-0.24,1111122 
COMPS,ioos:station:USF.COMPS:EGK:1,2009-01-01T18:42:00Z,27.6010,-82.7510,-0.226,1111122 
COMPS,ioos:station:USF.COMPS:EGK:1,2009-01-01T18:48:00Z,27.6010,-82.7510,-0.226,1111122 
COMPS,ioos:station:USF.COMPS:EGK:1,2009-01-01T18:54:00Z,27.6010,-82.7510,-0.227,1111122 
COMPS,ioos:station:USF.COMPS:EGK:1,2009-01-01T19:00:00Z,27.6010,-82.7510,-0.221,1111122 
COMPS,ioos:station:USF.COMPS:EGK:1,2009-01-01T19:06:00Z,27.6010,-82.7510,-0.204,1111122 
COMPS,ioos:station:USF.COMPS:EGK:1,2009-01-01T19:12:00Z,27.6010,-82.7510,-0.184,1111122 
COMPS,ioos:station:USF.COMPS:EGK:1,2009-01-01T19:18:00Z,27.6010,-82.7510,-0.168,1111122 
COMPS,ioos:station:USF.COMPS:EGK:1,2009-01-01T19:24:00Z,27.6010,-82.7510,-0.167,1111122 
COMPS,ioos:station:USF.COMPS:EGK:1,2009-01-01T19:30:00Z,27.6010,-82.7510,-0.167,1111122 
COMPS,ioos:station:USF.COMPS:EGK:1,2009-01-01T19:36:00Z,27.6010,-82.7510,-0.158,1111122 
COMPS,ioos:station:USF.COMPS:EGK:1,2009-01-01T19:42:00Z,27.6010,-82.7510,-0.151,1111122 
COMPS,ioos:station:USF.COMPS:EGK:1,2009-01-01T19:48:00Z,27.6010,-82.7510,-0.144,1111122 
COMPS,ioos:station:USF.COMPS:EGK:1,2009-01-01T19:54:00Z,27.6010,-82.7510,-0.135,1111122 
COMPS,ioos:station:USF.COMPS:EGK:1,2009-01-01T20:00:00Z,27.6010,-82.7510,-0.137,1111122 
COMPS,ioos:station:USF.COMPS:EGK:1,2009-01-01T20:06:00Z,27.6010,-82.7510,-0.134,1111122 
COMPS,ioos:station:USF.COMPS:EGK:1,2009-01-01T20:12:00Z,27.6010,-82.7510,-0.122,1111122 
COMPS,ioos:station:USF.COMPS:EGK:1,2009-01-01T20:18:00Z,27.6010,-82.7510,-0.113,1111122 
COMPS,ioos:station:USF.COMPS:EGK:1,2009-01-01T20:24:00Z,27.6010,-82.7510,-0.105,1111122 
COMPS,ioos:station:USF.COMPS:EGK:1,2009-01-01T20:30:00Z,27.6010,-82.7510,-0.103,1111122 
COMPS,ioos:station:USF.COMPS:EGK:1,2009-01-01T20:36:00Z,27.6010,-82.7510,-0.102,1111122 
COMPS,ioos:station:USF.COMPS:EGK:1,2009-01-01T20:42:00Z,27.6010,-82.7510,-0.097,1111122 
COMPS,ioos:station:USF.COMPS:EGK:1,2009-01-01T20:48:00Z,27.6010,-82.7510,-0.094,1111122 
COMPS,ioos:station:USF.COMPS:EGK:1,2009-01-01T20:54:00Z,27.6010,-82.7510,-0.103,1111122 
COMPS,ioos:station:USF.COMPS:EGK:1,2009-01-01T21:00:00Z,27.6010,-82.7510,-0.103,1111122 
COMPS,ioos:station:USF.COMPS:EGK:1,2009-01-01T21:06:00Z,27.6010,-82.7510,-0.098,1111122 
COMPS,ioos:station:USF.COMPS:EGK:1,2009-01-01T21:12:00Z,27.6010,-82.7510,-0.093,1111122 
COMPS,ioos:station:USF.COMPS:EGK:1,2009-01-01T21:18:00Z,27.6010,-82.7510,-0.089,1111122 
COMPS,ioos:station:USF.COMPS:EGK:1,2009-01-01T21:24:00Z,27.6010,-82.7510,-0.094,1111122 
COMPS,ioos:station:USF.COMPS:EGK:1,2009-01-01T21:30:00Z,27.6010,-82.7510,-0.098,1111122 
COMPS,ioos:station:USF.COMPS:EGK:1,2009-01-01T21:36:00Z,27.6010,-82.7510,-0.091,1111122 
COMPS,ioos:station:USF.COMPS:EGK:1,2009-01-01T21:42:00Z,27.6010,-82.7510,-0.095,1111122 
COMPS,ioos:station:USF.COMPS:EGK:1,2009-01-01T21:48:00Z,27.6010,-82.7510,-0.102,1111122 
COMPS,ioos:station:USF.COMPS:EGK:1,2009-01-01T21:54:00Z,27.6010,-82.7510,-0.113,1111122 
COMPS,ioos:station:USF.COMPS:EGK:1,2009-01-01T22:00:00Z,27.6010,-82.7510,-0.107,1111122 
COMPS,ioos:station:USF.COMPS:EGK:1,2009-01-01T22:06:00Z,27.6010,-82.7510,-0.108,1111122 
COMPS,ioos:station:USF.COMPS:EGK:1,2009-01-01T22:12:00Z,27.6010,-82.7510,-0.11,1111122 
COMPS,ioos:station:USF.COMPS:EGK:1,2009-01-01T22:18:00Z,27.6010,-82.7510,-0.109,1111122 
COMPS,ioos:station:USF.COMPS:EGK:1,2009-01-01T22:24:00Z,27.6010,-82.7510,-0.108,1111122 
COMPS,ioos:station:USF.COMPS:EGK:1,2009-01-01T22:30:00Z,27.6010,-82.7510,-0.111,1111122 
COMPS,ioos:station:USF.COMPS:EGK:1,2009-01-01T22:36:00Z,27.6010,-82.7510,-0.119,1111122 
COMPS,ioos:station:USF.COMPS:EGK:1,2009-01-01T22:42:00Z,27.6010,-82.7510,-0.135,1111122 
COMPS,ioos:station:USF.COMPS:EGK:1,2009-01-01T22:48:00Z,27.6010,-82.7510,-0.147,1111122 
COMPS,ioos:station:USF.COMPS:EGK:1,2009-01-01T22:54:00Z,27.6010,-82.7510,-0.153,1111122 
COMPS,ioos:station:USF.COMPS:EGK:1,2009-01-01T23:00:00Z,27.6010,-82.7510,-0.151,1111122 
COMPS,ioos:station:USF.COMPS:EGK:1,2009-01-01T23:06:00Z,27.6010,-82.7510,-0.167,1111122 
COMPS,ioos:station:USF.COMPS:EGK:1,2009-01-01T23:12:00Z,27.6010,-82.7510,-0.175,1111122 
COMPS,ioos:station:USF.COMPS:EGK:1,2009-01-01T23:18:00Z,27.6010,-82.7510,-0.18,1111122 
COMPS,ioos:station:USF.COMPS:EGK:1,2009-01-01T23:24:00Z,27.6010,-82.7510,-0.182,1111122 
COMPS,ioos:station:USF.COMPS:EGK:1,2009-01-01T23:30:00Z,27.6010,-82.7510,-0.186,1111122 
COMPS,ioos:station:USF.COMPS:EGK:1,2009-01-01T23:36:00Z,27.6010,-82.7510,-0.192,1111122 
COMPS,ioos:station:USF.COMPS:EGK:1,2009-01-01T23:42:00Z,27.6010,-82.7510,-0.202,1111122 
COMPS,ioos:station:USF.COMPS:EGK:1,2009-01-01T23:48:00Z,27.6010,-82.7510,-0.21,1111122 
COMPS,ioos:station:USF.COMPS:EGK:1,2009-01-01T23:54:00Z,27.6010,-82.7510,-0.211,1111122 
COMPS,ioos:station:USF.COMPS:EGK:1,2009-01-02T00:00:00Z,27.6010,-82.7510,-0.226,1111122 
COMPS,ioos:station:USF.COMPS:EGK:1,2009-01-02T00:06:00Z,27.6010,-82.7510,-0.232,1111122 
COMPS,ioos:station:USF.COMPS:EGK:1,2009-01-02T00:12:00Z,27.6010,-82.7510,-0.242,1111122 
COMPS,ioos:station:USF.COMPS:EGK:1,2009-01-02T00:18:00Z,27.6010,-82.7510,-0.241,1111122 
COMPS,ioos:station:USF.COMPS:EGK:1,2009-01-02T00:24:00Z,27.6010,-82.7510,-0.241,1111122 
COMPS,ioos:station:USF.COMPS:EGK:1,2009-01-02T00:30:00Z,27.6010,-82.7510,-0.24,1111122 
COMPS,ioos:station:USF.COMPS:EGK:1,2009-01-02T00:36:00Z,27.6010,-82.7510,-0.243,1111122 
COMPS,ioos:station:USF.COMPS:EGK:1,2009-01-02T00:42:00Z,27.6010,-82.7510,-0.246,1111122 
COMPS,ioos:station:USF.COMPS:EGK:1,2009-01-02T00:48:00Z,27.6010,-82.7510,-0.251,1111122 
COMPS,ioos:station:USF.COMPS:EGK:1,2009-01-02T00:54:00Z,27.6010,-82.7510,-0.258,1111122 
COMPS,ioos:station:USF.COMPS:EGK:1,2009-01-02T01:00:00Z,27.6010,-82.7510,-0.257,1111122 
COMPS,ioos:station:USF.COMPS:EGK:1,2009-01-02T01:06:00Z,27.6010,-82.7510,-0.25,1111122 
COMPS,ioos:station:USF.COMPS:EGK:1,2009-01-02T01:12:00Z,27.6010,-82.7510,-0.252,1111122 
COMPS,ioos:station:USF.COMPS:EGK:1,2009-01-02T01:18:00Z,27.6010,-82.7510,-0.26,1111122 
COMPS,ioos:station:USF.COMPS:EGK:1,2009-01-02T01:24:00Z,27.6010,-82.7510,-0.263,1111122 
COMPS,ioos:station:USF.COMPS:EGK:1,2009-01-02T01:30:00Z,27.6010,-82.7510,-0.263,1111122 
COMPS,ioos:station:USF.COMPS:EGK:1,2009-01-02T01:36:00Z,27.6010,-82.7510,-0.27,1111122 
COMPS,ioos:station:USF.COMPS:EGK:1,2009-01-02T01:42:00Z,27.6010,-82.7510,-0.276,1111122 
COMPS,ioos:station:USF.COMPS:EGK:1,2009-01-02T01:48:00Z,27.6010,-82.7510,-0.28,1111122 
COMPS,ioos:station:USF.COMPS:EGK:1,2009-01-02T01:54:00Z,27.6010,-82.7510,-0.28,1111122 
COMPS,ioos:station:USF.COMPS:EGK:1,2009-01-02T02:00:00Z,27.6010,-82.7510,-0.266,1111122 
COMPS,ioos:station:USF.COMPS:EGK:1,2009-01-02T02:06:00Z,27.6010,-82.7510,-0.256,1111122 
COMPS,ioos:station:USF.COMPS:EGK:1,2009-01-02T02:12:00Z,27.6010,-82.7510,-0.257,1111122 
COMPS,ioos:station:USF.COMPS:EGK:1,2009-01-02T02:18:00Z,27.6010,-82.7510,-0.258,1111122 
COMPS,ioos:station:USF.COMPS:EGK:1,2009-01-02T02:24:00Z,27.6010,-82.7510,-0.252,1111122 
COMPS,ioos:station:USF.COMPS:EGK:1,2009-01-02T02:30:00Z,27.6010,-82.7510,-0.246,1111122 
COMPS,ioos:station:USF.COMPS:EGK:1,2009-01-02T02:36:00Z,27.6010,-82.7510,-0.245,1111122 
COMPS,ioos:station:USF.COMPS:EGK:1,2009-01-02T02:42:00Z,27.6010,-82.7510,-0.238,1111122 
COMPS,ioos:station:USF.COMPS:EGK:1,2009-01-02T02:48:00Z,27.6010,-82.7510,-0.236,1111122 